This is the latest recevied weather packets stored in our database for station/object EA3ANS-1. If no packets are shown the sender has not sent any weather packets the latest 10 day(s).
| Time | Temp. | Humidity | Pressure | Rain* | Wind** | Luminosity | Snow |
|---|---|---|---|---|---|---|---|
| 1787974090 | 18.89° C | - | 1017.4 hPa | 0 mm | 3.58 m/s, 335° | - | - |
| 1787973492 | 18.89° C | - | 1017.4 hPa | 0 mm | 3.13 m/s, 321° | - | - |
| 1787972895 | 18.89° C | - | 1017.4 hPa | 0 mm | 2.68 m/s, 326° | - | - |
| 1787972297 | 18.89° C | - | 1017.3 hPa | 0 mm | 2.68 m/s, 1° | - | - |
| 1787971698 | 18.89° C | - | 1017.4 hPa | 0 mm | 2.24 m/s, 359° | - | - |
| 1787971093 | 18.89° C | - | 1017.4 hPa | 0 mm | 0.45 m/s, 330° | - | - |
| 1787970495 | 18.89° C | - | 1017.5 hPa | 0 mm | 1.79 m/s, 352° | - | - |
| 1787969898 | 18.33° C | - | 1017.6 hPa | 0 mm | 1.34 m/s, 295° | - | - |
| 1787969300 | 18.89° C | - | 1017.6 hPa | 0 mm | 1.79 m/s, 301° | - | - |
| 1787968702 | 18.89° C | - | 1017.7 hPa | 0 mm | 2.68 m/s, 359° | - | - |
| 1787968105 | 18.89° C | - | 1017.8 hPa | 0 mm | 1.79 m/s, 308° | - | - |
| 1787967507 | 18.89° C | - | 1017.8 hPa | 0 mm | 1.34 m/s, 304° | - | - |
| 1787966900 | 19.44° C | - | 1017.8 hPa | 0 mm | 1.34 m/s, 339° | - | - |
| 1787966303 | 20° C | - | 1017.9 hPa | 0 mm | 1.34 m/s, 342° | - | - |
| 1787965705 | 19.44° C | - | 1017.9 hPa | 0 mm | 0 m/s | - | - |
| 1787965103 | 19.44° C | - | 1018 hPa | 0 mm | 0 m/s | - | - |
| 1787964502 | 19.44° C | - | 1018.1 hPa | 0 mm | 0 m/s | - | - |
| 1787963905 | 20° C | - | 1018.2 hPa | 0 mm | 0 m/s | - | - |
| 1787963307 | 20° C | - | 1018.3 hPa | 0 mm | 0 m/s | - | - |
| 1787962702 | 20° C | - | 1018.3 hPa | 0 mm | 0 m/s | - | - |
| 1787962104 | 20° C | - | 1018.3 hPa | 0 mm | 0 m/s | - | - |
| 1787961501 | 20.56° C | - | 1018.4 hPa | 0 mm | 0 m/s | - | - |
| 1787960903 | 20.56° C | - | 1018.4 hPa | 0 mm | 0 m/s | - | - |
| 1787960303 | 20.56° C | - | 1018.3 hPa | 0 mm | 0 m/s | - | - |
| 1787959703 | 21.11° C | - | 1018.3 hPa | 0 mm | 0 m/s | - | - |
* Rain latest hour (hover to see other rain measurements)
** Current wind speed in m/s (hover to see current wind gust speed)